This is the latest recevied weather packets stored in our database for station/object HS5BOG-13. If no packets are shown the sender has not sent any weather packets the latest 10 day(s).
| Time | Temp. | Humidity | Pressure | Rain* | Wind** | Luminosity | Snow |
|---|---|---|---|---|---|---|---|
| 1777816980 | 32.78° C | 40% | 989.8 hPa | - | - | - | - |
| 1777816374 | 32.78° C | 41% | 989.6 hPa | - | - | - | - |
| 1777815769 | 32.78° C | 36% | 989.3 hPa | - | - | - | - |
| 1777815163 | 32.78° C | 38% | 989.1 hPa | - | - | - | - |
| 1777814557 | 33.33° C | 38% | 989 hPa | - | - | - | - |
| 1777813952 | 33.33° C | 37% | 988.8 hPa | - | - | - | - |
| 1777813346 | 33.33° C | 37% | 988.6 hPa | - | - | - | - |
| 1777812741 | 33.33° C | 35% | 988.3 hPa | - | - | - | - |
| 1777812135 | 33.33° C | 34% | 988.1 hPa | - | - | - | - |
| 1777811529 | 33.33° C | 32% | 988 hPa | - | - | - | - |
| 1777810924 | 33.33° C | 32% | 987.8 hPa | - | - | - | - |
| 1777810318 | 33.33° C | 31% | 987.6 hPa | - | - | - | - |
| 1777809713 | 33.33° C | 31% | 987.5 hPa | - | - | - | - |
| 1777809107 | 33.33° C | 30% | 987.5 hPa | - | - | - | - |
| 1777808502 | 33.33° C | 32% | 987.2 hPa | - | - | - | - |
| 1777807896 | 33.33° C | 32% | 987.2 hPa | - | - | - | - |
| 1777807291 | 33.89° C | 32% | 987 hPa | - | - | - | - |
| 1777806685 | 33.89° C | 31% | 987 hPa | - | - | - | - |
| 1777806079 | 33.89° C | 30% | 986.7 hPa | - | - | - | - |
| 1777805473 | 33.89° C | 30% | 986.7 hPa | - | - | - | - |
| 1777804868 | 33.89° C | 30% | 986.6 hPa | - | - | - | - |
| 1777804262 | 33.89° C | 29% | 986.6 hPa | - | - | - | - |
| 1777803657 | 33.89° C | 29% | 986.5 hPa | - | - | - | - |
| 1777803051 | 33.89° C | 31% | 986.4 hPa | - | - | - | - |
| 1777802445 | 33.89° C | 30% | 986.4 hPa | - | - | - | - |
* Rain since midnight (hover to see other rain measurements)
** Current wind speed in m/s (hover to see current wind gust speed)